Change the Weather History Date:

Friday, October 4, 2013

  Actual Average Record
Temperature  
Mean Temperature 58 °F 52 °F  
Max Temperature 60 °F 62 °F 84 °F (1967)
Min Temperature 55 °F 41 °F 25 °F (1989)
Degree Days  
Heating Degree Days 7 14  
Month to date heating degree days 21 53  
Since 1 July heating degree days 232 323  
Cooling Degree Days 0 0  
Month to date cooling degree days 2 0  
Year to date cooling degree days 535 395  
Growing Degree Days 7 (Base 50)    
Moisture  
Dew Point 56 °F    
Average Humidity 95    
Maximum Humidity 100    
Minimum Humidity 90    
Precipitation  
Precipitation 0.31 in 0.09 in 1.35 in (1904)
Month to date precipitation 0.31 0.34  
Year to date precipitation 27.19 23.78  
Snow  
Snow 0.00 in 0.00 in T in (1911)
Month to date snowfall 0.0 0.0  
Since 1 July snowfall 0.0 0.0  
Since 1 September snowfall 0.0 0.0  
Snow Depth 0.00 in    
Sea Level Pressure  
Sea Level Pressure 30.00 in    
Wind  
Wind Speed 12 mph (NNE)    
Max Wind Speed 21 mph    
Max Gust Speed 26 mph    
Visibility 7 miles    
Events Rain , Thunderstorm    
T = Trace of Precipitation, MM = Missing Value Source: NWS Daily Summary

Daily Weather History Graph

Daily Weather History Graph

Search for Another Location

Airport or City:

Trip Planner

Search our weather history database for the weather conditions in past years. The results will help you decide how hot, cold, wet, or windy it might be!

Date:

Astronomy

Oct. 04, 2013 Rise Set
Actual Time 6:54 AM CDT 6:27 PM CDT
Civil Twilight 6:25 AM CDT 6:56 PM CDT
Nautical Twilight 5:51 AM CDT 7:29 PM CDT
Astronomical Twilight 5:17 AM CDT 8:03 PM CDT
Moon 6:30 AM CDT (10/4) 6:08 PM CDT (10/4)
Length of Visible Light 12h 30m
Length of Day
11h 32m
Waning Crescent, 0% of the Moon is Illuminated
Oct 4
Waning Crescent
Oct 4
New
Oct 11
First Quarter
Oct 18
Full
Oct 26
Last Quarter

Hourly Weather History & Observations

Time (CDT) Temp. Dew Point Humidity Pressure Visibility Wind Dir Wind Speed Gust Speed Precip Events Conditions
12:53 AM 60.1 °F 57.0 °F 90% 29.90 in 10.0 mi NE 10.4 mph - N/A   Overcast
1:03 AM 60.1 °F 57.0 °F 90% 29.91 in 10.0 mi NE 10.4 mph - N/A   Overcast
1:53 AM 60.1 °F 57.0 °F 90% 29.91 in 10.0 mi NNE 9.2 mph - N/A   Overcast
2:53 AM 57.9 °F 55.9 °F 93% 29.94 in 9.0 mi North 10.4 mph - N/A   Overcast
3:53 AM 57.0 °F 55.0 °F 93% 29.94 in 7.0 mi North 8.1 mph - 0.00 in   Overcast
4:24 AM 55.9 °F 55.0 °F 97% 29.94 in 2.5 mi NNE 10.4 mph - 0.00 in Rain Light Rain
4:28 AM 55.9 °F 55.0 °F 97% 29.95 in 3.0 mi NNE 10.4 mph - 0.00 in Rain , Thunderstorm Light Rain
4:53 AM 55.9 °F 55.0 °F 97% 29.97 in 3.0 mi North 9.2 mph - 0.05 in Rain , Thunderstorm Heavy Rain
5:01 AM 55.0 °F 55.0 °F 100% 29.98 in 1.8 mi ENE 4.6 mph - 0.06 in Rain , Thunderstorm Heavy Thunderstorms and Rain
5:11 AM 55.0 °F 55.0 °F 100% 29.98 in 2.0 mi North 12.7 mph - 0.21 in Rain , Thunderstorm Heavy Thunderstorms and Rain
5:19 AM 55.0 °F 55.0 °F 100% 29.96 in 4.0 mi NNE 12.7 mph - 0.23 in Rain , Thunderstorm Rain
5:27 AM 55.0 °F 55.0 °F 100% 29.98 in 8.0 mi NNE 9.2 mph - 0.23 in Rain , Thunderstorm Light Thunderstorms and Rain
5:43 AM 55.9 °F 55.0 °F 97% 29.98 in 10.0 mi NNE 8.1 mph - 0.23 in Thunderstorm Overcast
5:53 AM 55.9 °F 55.0 °F 97% 29.99 in 10.0 mi NNE 11.5 mph - 0.23 in   Overcast
6:24 AM 55.9 °F 55.0 °F 97% 29.98 in 10.0 mi NNE 11.5 mph - N/A Thunderstorm Overcast
6:39 AM 55.9 °F 55.0 °F 97% 29.97 in 10.0 mi NNE 12.7 mph - N/A   Overcast
6:53 AM 55.9 °F 55.0 °F 97% 29.99 in 10.0 mi NNE 11.5 mph - N/A   Overcast
7:53 AM 55.9 °F 54.0 °F 93% 30.01 in 10.0 mi NNE 9.2 mph - N/A   Overcast
8:53 AM 55.9 °F 54.0 °F 93% 30.01 in 10.0 mi NNE 12.7 mph - N/A   Overcast
9:53 AM 55.9 °F 55.0 °F 97% 30.02 in 8.0 mi NNE 10.4 mph - N/A   Overcast
10:40 AM 57.0 °F 55.0 °F 93% 30.04 in 6.0 mi Calm Calm - N/A   Overcast
10:53 AM 57.0 °F 55.9 °F 96% 30.01 in 4.0 mi NE 17.3 mph - 0.00 in Rain Light Rain
11:08 AM 57.0 °F 55.9 °F 96% 29.97 in 3.0 mi NNE 13.8 mph - 0.00 in Rain Light Rain
11:53 AM 57.9 °F 57.0 °F 97% 29.99 in 5.0 mi NNE 13.8 mph 21.9 mph 0.00 in   Overcast
12:39 PM 59.0 °F 57.0 °F 93% 30.02 in 6.0 mi North 9.2 mph - 0.01 in Rain Light Rain
12:53 PM 59.0 °F 57.9 °F 96% 30.01 in 7.0 mi NNE 15.0 mph - 0.01 in Rain Light Rain
1:53 PM 59.0 °F 57.0 °F 93% 30.06 in 7.0 mi NE 10.4 mph - 0.01 in   Overcast
2:53 PM 59.0 °F 57.9 °F 96% 30.05 in 3.0 mi NNE 17.3 mph 21.9 mph 0.00 in Rain Light Rain
3:23 PM 59.0 °F 57.9 °F 96% 30.03 in 5.0 mi NNE 12.7 mph - 0.01 in Rain Light Rain
3:53 PM 59.0 °F 57.0 °F 93% 30.05 in 3.0 mi NE 10.4 mph - 0.01 in Rain Light Rain
4:53 PM 59.0 °F 57.9 °F 96% 30.04 in 4.0 mi NE 13.8 mph - 0.00 in   Overcast
5:07 PM 59.0 °F 57.9 °F 96% 30.03 in 4.0 mi NE 12.7 mph - N/A   Overcast
5:42 PM 59.0 °F 57.0 °F 93% 30.03 in 9.0 mi NE 13.8 mph - N/A   Overcast
5:53 PM 59.0 °F 57.0 °F 93% 30.02 in 9.0 mi NE 16.1 mph - N/A   Overcast
6:53 PM 59.0 °F 57.0 °F 93% 30.03 in 10.0 mi NE 11.5 mph - N/A   Overcast
7:53 PM 59.0 °F 57.9 °F 96% 30.04 in 10.0 mi NE 11.5 mph - N/A   Overcast
8:49 PM 59.0 °F 57.2 °F 94% 30.04 in 9.0 mi ENE 12.7 mph - N/A   Overcast
8:53 PM 59.0 °F 57.9 °F 96% 30.04 in 9.0 mi ENE 11.5 mph - N/A   Overcast
9:53 PM 59.0 °F 57.9 °F 96% 30.04 in 6.0 mi ENE 12.7 mph - N/A   Overcast
10:53 PM 59.0 °F 59.0 °F 100% 30.05 in 4.0 mi NNE 11.5 mph - N/A   Overcast
11:53 PM 59.0 °F 59.0 °F 100% 30.03 in 5.0 mi NE 13.8 mph - 0.00 in   Overcast